Flag for Pakistan Weather past 2 weeks in Lahore, Pakistan

Now
99 °F

Scattered clouds.


Feels Like: 110 °F
Forecast: 75 / 98 °F
Wind: 6 mph from Southwest

Location: Lahore Airport

Current Time: Sep 4, 2015 at 4:01:21 PM

Latest Report: Sep 4, 2015 at 2:25 PM


Visibility: 4 mi

Pressure: 29.80 "Hg

Humidity: 44%

Dew point: 73 °F

Location of LahoreLocation

Historic Weather in Lahore — Graph

°F

Lahore temperature yesterday

Maximum temperature yesterday: 99 °F (at 2:55 PM)
Minimum temperature yesterday: 81 °F (at 4:55 AM)
Average temperature yesterday: 89 °F

Past Weeks' High & Low Weather Summary

 TemperatureHumidityPressure
High102 °F (Sep 1, 2:00 PM)100% (Aug 21, 2:25 PM)29.86 "Hg (Aug 21, 2:25 PM)
Low73 °F (Aug 21, 11:55 PM)35% (Aug 31, 2:55 PM)29.50 "Hg (Aug 20, 5:25 PM)
Average89 °F66%29.62 "Hg
* Reported Aug 20 2:25 PM — Sep 4 2:25 PM, Lahore, Weather by CustomWeather, © 2015

Note: Actual official high and low records may vary slightly from our data, if they occured in-between our weather recording intervals... More about our weather records

Advertising

Lahore weather history for previous 24 hours

 ConditionsComfort  
Time TempWeatherWind HumidityBarometerVisibility
2:25 PM
Fri, Sep 4
99 °FScattered clouds.6 mph44%29.80 "Hg4 mi
1:55 PM99 °FScattered clouds.5 mph44%29.80 "Hg4 mi
1:25 PM97 °FScattered clouds.5 mph44%29.80 "Hg4 mi
12:55 PM97 °FScattered clouds.5 mph44%29.83 "Hg4 mi
12:25 PM97 °FPassing clouds.No wind44%29.83 "Hg4 mi
11:55 AM97 °FPassing clouds.3 mph44%29.83 "Hg4 mi
11:25 AM95 °FPassing clouds.No wind47%29.83 "Hg4 mi
10:55 AM95 °FPassing clouds.No wind47%29.83 "Hg4 mi
10:25 AM93 °FClear.3 mph49%29.86 "Hg4 mi
9:55 AM91 °FClear.No wind52%29.86 "Hg4 mi
9:25 AM90 °FClear.No wind55%29.86 "Hg3 mi
8:55 AM88 °FClear.No wind59%29.86 "Hg3 mi
8:25 AM84 °FClear.3 mph70%29.83 "Hg3 mi
7:55 AM82 °FClear.5 mph74%29.83 "Hg3 mi
7:25 AM82 °FClear.3 mph74%29.83 "Hg2 mi
6:55 AM81 °FClear.3 mph79%29.83 "Hg2 mi
6:25 AM81 °FClear.No wind79%29.83 "Hg2 mi
5:55 AM79 °FClear.No wind84%29.80 "Hg2 mi
5:00 AM81 °FClear.No wind79%29.80 "Hg2 mi
4:25 AM81 °FClear.No wind79%29.77 "Hg2 mi
3:55 AM81 °FClear.No wind79%29.77 "Hg2 mi
3:25 AM82 °FClear.No wind74%29.77 "Hg2 mi
2:25 AM82 °FClear.3 mph74%29.77 "Hg3 mi
1:25 AM84 °FClear.No wind70%29.77 "Hg3 mi
12:55 AM84 °FClear.3 mph70%29.77 "Hg3 mi
12:25 AM84 °FClear.3 mph70%29.77 "Hg3 mi
11:25 PM
Thu, Sep 3
86 °FClear.3 mph66%29.77 "Hg3 mi
10:55 PM86 °FClear.No wind66%29.77 "Hg3 mi
10:25 PM86 °FClear.3 mph66%29.77 "Hg3 mi
9:55 PM86 °FClear.5 mph66%29.74 "Hg3 mi
9:25 PM88 °FClear.5 mph59%29.74 "Hg3 mi
8:55 PM88 °FClear.No wind59%29.74 "Hg3 mi
8:25 PM90 °FClear.No wind55%29.74 "Hg4 mi
7:55 PM91 °FClear.No wind52%29.71 "Hg4 mi
7:25 PM91 °FClear.No wind52%29.71 "Hg4 mi
6:55 PM93 °FClear.3 mph49%29.71 "Hg4 mi
6:25 PM93 °FPassing clouds.5 mph49%29.68 "Hg4 mi
5:55 PM95 °FPassing clouds.6 mph47%29.71 "Hg4 mi
5:25 PM97 °FPassing clouds.9 mph44%29.68 "Hg4 mi
4:55 PM97 °FPassing clouds.9 mph44%29.68 "Hg4 mi
4:25 PM97 °FPassing clouds.8 mph44%29.68 "Hg4 mi
Weather by CustomWeather, © 2015

See weather overviewHow to use our weather pages